Time,TemperatureF,DewpointF,PressureIn,WindDirection,WindDirectionDegrees,WindSpeedMPH,WindSpeedGustMPH,Humidity,HourlyPrecipIn,Conditions,Clouds,dailyrainin,SoftwareType,DateUTC
2013-03-30 00:00:00,55.2,51.0,30.07,WSW,255,0.0,0.0,86,0.00,,,0.01,weatherlink.com 1.10,2013-03-30 07:00:00,
2013-03-30 00:15:00,55.1,51.0,30.07,NNE,20,0.0,2.0,86,0.00,,,0.00,weatherlink.com 1.10,2013-03-30 07:15:00,
2013-03-30 00:30:00,54.9,51.0,30.08,NNE,19,0.0,2.0,86,0.00,,,0.00,weatherlink.com 1.10,2013-03-30 07:30:00,
2013-03-30 00:45:00,55.0,50.0,30.08,ENE,78,0.0,2.0,83,0.00,,,0.00,weatherlink.com 1.10,2013-03-30 07:45:00,
2013-03-30 01:00:00,54.9,50.0,30.07,ENE,76,3.0,3.0,83,0.00,,,0.00,weatherlink.com 1.10,2013-03-30 08:00:00,
2013-03-30 01:15:00,54.8,50.0,30.08,ENE,71,0.0,2.0,83,0.00,,,0.00,weatherlink.com 1.10,2013-03-30 08:15:00,
2013-03-30 01:30:00,54.4,49.0,30.07,NNW,347,0.0,2.0,83,0.00,,,0.00,weatherlink.com 1.10,2013-03-30 08:30:00,
2013-03-30 01:45:00,54.0,49.0,30.07,NNW,347,0.0,0.0,83,0.00,,,0.00,weatherlink.com 1.10,2013-03-30 08:45:00,
2013-03-30 02:00:00,53.6,49.0,30.07,NNW,347,0.0,0.0,84,0.00,,,0.00,weatherlink.com 1.10,2013-03-30 09:00:00,
2013-03-30 02:15:00,53.3,49.0,30.06,NNW,347,0.0,0.0,84,0.00,,,0.00,weatherlink.com 1.10,2013-03-30 09:15:00,
2013-03-30 02:30:00,53.1,49.0,30.07,NNW,347,0.0,0.0,85,0.00,,,0.00,weatherlink.com 1.10,2013-03-30 09:30:00,
2013-03-30 02:45:00,53.1,49.0,30.06,NNW,347,0.0,0.0,86,0.00,,,0.00,weatherlink.com 1.10,2013-03-30 09:45:00,
2013-03-30 03:00:00,53.0,49.0,30.06,NNW,347,0.0,0.0,86,0.00,,,0.00,weatherlink.com 1.10,2013-03-30 10:00:00,
2013-03-30 03:15:00,53.0,49.0,30.06,NNW,347,0.0,0.0,87,0.00,,,0.00,weatherlink.com 1.10,2013-03-30 10:15:00,
2013-03-30 03:30:00,53.0,49.0,30.06,NNW,347,0.0,1.0,87,0.00,,,0.00,weatherlink.com 1.10,2013-03-30 10:30:00,
2013-03-30 03:45:00,52.8,49.0,30.05,NNW,347,0.0,0.0,86,0.00,,,0.00,weatherlink.com 1.10,2013-03-30 10:45:00,
2013-03-30 04:00:00,52.6,49.0,30.04,NNW,347,0.0,0.0,87,0.00,,,0.00,weatherlink.com 1.10,2013-03-30 11:00:00,
2013-03-30 04:15:00,52.3,49.0,30.03,NNW,347,0.0,0.0,88,0.00,,,0.00,weatherlink.com 1.10,2013-03-30 11:15:00,
2013-03-30 04:30:00,52.1,49.0,30.03,NNW,347,0.0,0.0,88,0.00,,,0.00,weatherlink.com 1.10,2013-03-30 11:30:00,
2013-03-30 04:45:00,52.0,49.0,30.03,NNW,347,0.0,0.0,88,0.00,,,0.00,weatherlink.com 1.10,2013-03-30 11:45:00,
2013-03-30 05:00:00,52.0,49.0,30.02,NNW,347,0.0,0.0,89,0.00,,,0.00,weatherlink.com 1.10,2013-03-30 12:00:00,
2013-03-30 05:15:00,52.0,49.0,30.02,NNW,347,0.0,0.0,89,0.00,,,0.00,weatherlink.com 1.10,2013-03-30 12:15:00,
2013-03-30 05:30:00,52.0,49.0,30.02,NNW,347,0.0,0.0,89,0.00,,,0.00,weatherlink.com 1.10,2013-03-30 12:30:00,
2013-03-30 05:45:00,52.1,49.0,30.02,NNW,347,0.0,0.0,90,0.00,,,0.00,weatherlink.com 1.10,2013-03-30 12:45:00,
2013-03-30 06:00:00,52.1,49.0,30.02,NNW,347,0.0,0.0,90,0.00,,,0.00,weatherlink.com 1.10,2013-03-30 13:00:00,
2013-03-30 06:15:00,52.2,49.0,30.02,NNW,347,0.0,0.0,90,0.00,,,0.00,weatherlink.com 1.10,2013-03-30 13:15:00,
2013-03-30 06:30:00,51.9,49.0,30.03,NNW,347,0.0,0.0,90,0.00,,,0.00,weatherlink.com 1.10,2013-03-30 13:30:00,
2013-03-30 06:45:00,51.6,49.0,30.04,NNW,347,0.0,0.0,90,0.00,,,0.00,weatherlink.com 1.10,2013-03-30 13:45:00,
2013-03-30 07:00:00,51.2,48.0,30.04,NNW,347,0.0,2.0,90,0.00,,,0.00,weatherlink.com 1.10,2013-03-30 14:00:00,
2013-03-30 07:15:00,51.1,48.0,30.04,East,101,0.0,0.0,90,0.00,,,0.00,weatherlink.com 1.10,2013-03-30 14:15:00,
2013-03-30 07:30:00,51.2,48.0,30.05,East,101,0.0,0.0,90,0.00,,,0.00,weatherlink.com 1.10,2013-03-30 14:30:00,
2013-03-30 07:45:00,51.4,48.0,30.05,East,101,0.0,1.0,89,0.00,,,0.00,weatherlink.com 1.10,2013-03-30 14:45:00,
2013-03-30 08:00:00,51.6,48.0,30.05,NE,50,0.0,2.0,88,0.00,,,0.00,weatherlink.com 1.10,2013-03-30 15:00:00,
2013-03-30 08:16:00,51.7,48.0,30.06,NW,308,0.0,3.0,88,0.00,,,0.00,weatherlink.com 1.10,2013-03-30 15:16:00,
2013-03-30 08:30:00,51.5,48.0,30.07,NW,313,0.0,3.0,88,0.00,,,0.00,weatherlink.com 1.10,2013-03-30 15:30:00,
2013-03-30 08:45:00,51.5,48.0,30.07,NW,313,0.0,0.0,88,0.00,,,0.00,weatherlink.com 1.10,2013-03-30 15:45:00,
2013-03-30 09:00:00,51.9,49.0,30.07,NNW,329,0.0,2.0,88,0.00,,,0.00,weatherlink.com 1.10,2013-03-30 16:00:00,
2013-03-30 09:15:00,52.3,49.0,30.07,NNW,329,0.0,1.0,88,0.00,,,0.00,weatherlink.com 1.10,2013-03-30 16:15:00,
2013-03-30 09:30:00,52.7,49.0,30.06,NNW,329,0.0,1.0,87,0.00,,,0.00,weatherlink.com 1.10,2013-03-30 16:30:00,
2013-03-30 09:45:00,53.7,50.0,30.06,ESE,123,0.0,2.0,87,0.00,,,0.00,weatherlink.com 1.10,2013-03-30 16:45:00,
2013-03-30 10:00:00,54.5,50.0,30.07,ESE,106,0.0,2.0,85,0.00,,,0.00,weatherlink.com 1.10,2013-03-30 17:00:00,
2013-03-30 10:15:00,55.6,50.0,30.07,NE,53,0.0,3.0,82,0.00,,,0.00,weatherlink.com 1.10,2013-03-30 17:15:00,
2013-03-30 10:30:00,56.2,51.0,30.06,West,274,2.0,3.0,83,0.00,,,0.00,weatherlink.com 1.10,2013-03-30 17:30:00,
2013-03-30 10:45:00,58.8,52.0,30.07,East,91,3.0,5.0,78,0.00,,,0.00,weatherlink.com 1.10,2013-03-30 17:45:00,
2013-03-30 11:00:00,59.6,53.0,30.07,ENE,61,0.0,4.0,80,0.00,,,0.00,weatherlink.com 1.10,2013-03-30 18:00:00,
2013-03-30 11:15:00,60.1,52.0,30.07,West,262,0.0,6.0,75,0.00,,,0.00,weatherlink.com 1.10,2013-03-30 18:15:00,
2013-03-30 11:31:00,59.9,52.0,30.07,ENE,78,0.0,7.0,76,0.00,,,0.00,weatherlink.com 1.10,2013-03-30 18:31:00,
2013-03-30 11:46:00,63.1,55.0,30.07,ENE,72,0.0,2.0,76,0.00,,,0.00,weatherlink.com 1.10,2013-03-30 18:46:00,
2013-03-30 12:01:00,61.8,53.0,30.06,WSW,240,0.0,9.0,74,0.00,,,0.00,weatherlink.com 1.10,2013-03-30 19:01:00,
2013-03-30 12:31:00,60.8,53.0,30.07,North,360,3.0,7.0,75,0.00,,,0.00,weatherlink.com 1.10,2013-03-30 19:31:00,
2013-03-30 12:46:00,58.5,52.0,30.08,NE,41,0.0,8.0,80,0.00,,,0.00,weatherlink.com 1.10,2013-03-30 19:46:00,
2013-03-30 13:01:00,58.3,53.0,30.07,NNE,22,0.0,4.0,81,0.00,,,0.00,weatherlink.com 1.10,2013-03-30 20:01:00,
2013-03-30 13:16:00,57.7,52.0,30.07,NNW,340,0.0,5.0,82,0.00,,,0.00,weatherlink.com 1.10,2013-03-30 20:16:00,
2013-03-30 13:31:00,57.4,52.0,30.07,SSW,194,2.0,3.0,83,0.00,,,0.00,weatherlink.com 1.10,2013-03-30 20:31:00,
2013-03-30 13:46:00,57.6,54.0,30.07,SSW,202,0.0,1.0,86,0.00,,,0.00,weatherlink.com 1.10,2013-03-30 20:46:00,
2013-03-30 14:01:00,58.0,54.0,30.07,SSW,202,0.0,2.0,85,0.00,,,0.00,weatherlink.com 1.10,2013-03-30 21:01:00,
2013-03-30 14:16:00,58.0,54.0,30.07,WSW,254,0.0,2.0,86,0.00,,,0.00,weatherlink.com 1.10,2013-03-30 21:16:00,
2013-03-30 14:31:00,58.4,55.0,30.06,SSW,207,0.0,1.0,88,0.00,,,0.00,weatherlink.com 1.10,2013-03-30 21:31:00,
2013-03-30 15:16:00,61.0,56.0,30.04,ESE,102,1.0,4.0,82,0.00,,,0.00,weatherlink.com 1.10,2013-03-30 22:16:00,
2013-03-30 15:31:00,60.8,53.0,30.04,East,86,3.0,5.0,76,0.00,,,0.00,weatherlink.com 1.10,2013-03-30 22:31:00,
2013-03-30 16:31:00,62.3,53.0,30.02,WNW,293,0.0,2.0,71,0.00,,,0.00,weatherlink.com 1.10,2013-03-30 23:31:00,
2013-03-30 16:46:00,62.2,52.0,30.01,East,91,0.0,4.0,70,0.00,,,0.00,weatherlink.com 1.10,2013-03-30 23:46:00,
2013-03-30 17:16:00,61.1,53.0,30.02,NW,320,2.0,6.0,74,0.00,,,0.00,weatherlink.com 1.10,2013-03-31 00:16:00,
2013-03-30 17:31:00,59.4,52.0,30.02,South,184,0.0,5.0,76,0.00,,,0.00,weatherlink.com 1.10,2013-03-31 00:31:00,
2013-03-30 17:46:00,57.6,51.0,30.02,East,80,0.0,3.0,79,0.00,,,0.00,weatherlink.com 1.10,2013-03-31 00:46:00,
2013-03-30 18:01:00,57.5,51.0,30.03,SSE,163,0.0,2.0,79,0.00,,,0.00,weatherlink.com 1.10,2013-03-31 01:01:00,
2013-03-30 18:16:00,57.1,51.0,30.04,NNE,18,0.0,1.0,79,0.00,,,0.00,weatherlink.com 1.10,2013-03-31 01:16:00,
2013-03-30 18:31:00,56.2,50.0,30.04,NNW,340,0.0,2.0,80,0.00,,,0.00,weatherlink.com 1.10,2013-03-31 01:31:00,
2013-03-30 18:46:00,55.7,50.0,30.05,NNW,340,0.0,2.0,80,0.00,,,0.00,weatherlink.com 1.10,2013-03-31 01:46:00,
2013-03-30 19:01:00,55.3,50.0,30.04,NNW,340,0.0,1.0,81,0.00,,,0.00,weatherlink.com 1.10,2013-03-31 02:01:00,
2013-03-30 19:31:00,54.3,49.0,30.04,North,351,0.0,0.0,83,0.00,,,0.00,weatherlink.com 1.10,2013-03-31 02:31:00,
2013-03-30 19:46:00,53.8,49.0,30.04,North,351,0.0,0.0,85,0.00,,,0.00,weatherlink.com 1.10,2013-03-31 02:46:00,
2013-03-30 20:01:00,53.5,50.0,30.04,North,351,0.0,0.0,87,0.01,,,0.01,weatherlink.com 1.10,2013-03-31 03:01:00,
2013-03-30 20:16:00,53.0,50.0,30.05,North,351,0.0,1.0,89,0.01,,,0.01,weatherlink.com 1.10,2013-03-31 03:16:00,
2013-03-30 20:31:00,52.5,50.0,30.04,North,351,0.0,0.0,90,0.05,,,0.05,weatherlink.com 1.10,2013-03-31 03:31:00,
2013-03-30 21:01:00,51.9,50.0,30.05,North,351,0.0,0.0,92,0.09,,,0.10,weatherlink.com 1.10,2013-03-31 04:01:00,
2013-03-30 21:16:00,51.7,50.0,30.03,North,351,0.0,0.0,92,0.11,,,0.12,weatherlink.com 1.10,2013-03-31 04:16:00,
2013-03-30 21:46:00,51.5,50.0,30.05,North,351,0.0,0.0,93,0.05,,,0.13,weatherlink.com 1.10,2013-03-31 04:46:00,
2013-03-30 22:01:00,51.4,50.0,30.05,North,351,0.0,0.0,93,0.03,,,0.13,weatherlink.com 1.10,2013-03-31 05:01:00,
2013-03-30 22:31:00,51.4,50.0,30.04,North,351,0.0,0.0,94,0.00,,,0.13,weatherlink.com 1.10,2013-03-31 05:31:00,
2013-03-30 22:46:00,51.4,50.0,30.05,North,351,0.0,0.0,94,0.00,,,0.13,weatherlink.com 1.10,2013-03-31 05:46:00,
2013-03-30 23:01:00,51.2,50.0,30.05,North,351,0.0,0.0,94,0.00,,,0.13,weatherlink.com 1.10,2013-03-31 06:01:00,
2013-03-30 23:16:00,51.3,50.0,30.06,North,351,0.0,1.0,94,0.01,,,0.14,weatherlink.com 1.10,2013-03-31 06:16:00,
2013-03-30 23:31:00,51.3,50.0,30.04,North,351,0.0,0.0,94,0.01,,,0.14,weatherlink.com 1.10,2013-03-31 06:31:00,
2013-03-30 23:46:00,51.2,50.0,30.05,North,351,0.0,0.0,94,0.02,,,0.15,weatherlink.com 1.10,2013-03-31 06:46:00,